Location: Pace/Milton
(30.6162°N, 87.1503°W)
Time: 11:04:03
(UTC-06:00)

N. Korean satellite - Pass Details

Date: 06 December 2021
Orbit: 447 x 491 km, 97.3° (Epoch: 21 January)

Event Time Altitude Azimuth Distance (km) Brightness Sun altitude
Rises 04:13:16 0° 31° (NNE) 2,447 10.4 -29.2°
Reaches altitude 10° 04:15:45 10° 51° (NE) 1,572 9.6 -28.7°
Maximum altitude 04:18:09 18° 96° (E) 1,161 9.2 -28.2°
Drops below altitude 10° 04:20:32 10° 142° (SE) 1,570 9.7 -27.7°
Sets 04:23:01 0° 161° (SSE) 2,442 10.5 -27.1°
